EA3DKP Weather Reports


time (UTC)temp
C
wind
direction
speed
KPH
gust
KPH
rain 1hr
cm
rain 24hr
cm
rain mn
cm
humidity
%
barometer
mb
20260507191521 16 360 0.0 0.0 0.00 0.00 0.00 76 1010.8
20260507190020 16 360 0.0 0.0 0.00 0.00 0.00 75 1010.9
20260507184519 17 360 0.0 0.0 0.00 0.00 0.00 74 1010.7
20260507183015 17 360 0.0 0.0 0.00 0.00 0.00 71 1010.4
20260507181512 17 360 0.0 0.0 0.00 0.00 0.00 70 1010.4
20260507180010 18 360 0.0 0.0 0.00 0.00 0.00 69 1010.4
20260507174512 18 360 0.0 0.0 0.00 0.00 0.00 68 1010.6
20260507173056 18 360 0.0 0.0 0.00 0.00 0.00 66 1010.5
20260507171554 18 360 0.0 0.0 0.00 0.00 0.00 65 1010.4
20260507170054 18 360 0.0 0.0 0.00 0.00 0.00 62 1010.6
20260507164550 18 360 0.0 0.0 0.00 0.00 0.00 55 1010.7
20260507163047 19 279 0.0 0.0 0.00 0.00 0.00 55 1010.7
20260507161548 20 360 0.0 0.0 0.00 0.00 0.00 53 1010.5
20260507160045 20 360 0.0 0.0 0.00 0.00 0.00 52 1010.5
20260507154544 20 360 0.0 0.0 0.00 0.00 0.00 54 1010.6
20260507153040 20 360 0.0 0.0 0.00 0.00 0.00 50 1010.7
20260507151530 20 360 0.0 0.0 0.00 0.00 0.00 52 1010.6
20260507150030 20 279 0.0 0.0 0.00 0.00 0.30 53 1010.6
20260507144527 20 238 0.0 0.0 0.00 0.00 0.30 54 1010.8
20260507143027 20 261 0.0 0.0 0.00 0.00 0.30 54 1010.9
20260507141526 20 222 0.0 0.0 0.00 0.00 0.30 55 1010.9
20260507140025 20 225 0.0 0.0 0.00 0.00 0.30 55 1011.0
20260507134525 20 218 0.0 0.0 0.00 0.00 0.30 53 1011.2
20260507133013 20 360 0.0 0.0 0.00 0.00 0.30 54 1011.4
20260507131518 20 233 0.0 0.0 0.00 0.00 0.30 53 1011.4
20260507130021 21 360 0.0 0.0 0.00 0.00 0.30 53 1011.6
20260507124519 20 360 0.0 0.0 0.00 0.00 0.30 55 1011.5
20260507123011 20 272 0.0 0.0 0.00 0.00 0.30 55 1011.4
20260507121510 20 360 0.0 0.0 0.00 0.00 0.30 55 1011.4
20260507120011 20 360 0.0 0.0 0.00 0.00 0.30 58 1011.5
20260507114504 20 360 0.0 0.0 0.00 0.00 0.30 59 1011.5
20260507113051 19 360 0.0 0.0 0.00 0.00 0.30 61 1011.8
20260507111550 19 360 0.0 0.0 0.00 0.00 0.30 62 1011.9
20260507110048 19 277 0.0 0.0 0.00 0.00 0.30 61 1011.9
20260507104544 18 279 0.0 0.0 0.00 0.00 0.30 64 1012.0
20260507103040 18 360 0.0 0.0 0.00 0.00 0.30 69 1012.2
20260507101538 17 277 0.0 0.0 0.00 0.00 0.30 73 1012.4
20260507100036 17 360 0.0 0.0 0.00 0.00 0.30 73 1012.3
20260507094535 17 360 0.0 0.0 0.00 0.00 0.30 73 1012.3
20260507093025 17 360 0.0 0.0 0.00 0.00 0.30 72 1012.2
20260507091525 17 360 0.0 0.0 0.00 0.00 0.30 72 1012.1
20260507090021 17 120 0.0 0.0 0.00 0.00 0.30 73 1012.0
20260507084517 16 135 0.0 0.0 0.00 0.00 0.30 76 1012.2
20260507083012 16 134 0.0 0.0 0.00 0.00 0.30 76 1012.4
20260507081509 16 360 0.0 0.0 0.00 0.00 0.30 80 1012.5
20260507080005 15 123 0.0 0.0 0.00 0.00 0.30 83 1012.6
20260507074601 15 360 0.0 0.0 0.00 0.00 0.30 86 1012.4
20260507073045 14 360 0.0 0.0 0.00 0.00 0.30 87 1012.4
20260507071600 13 360 0.0 0.0 0.00 0.00 0.30 88 1012.3
20260507070037 13 360 0.0 0.0 0.00 0.00 0.30 88 1012.2
20260507064531 13 360 0.0 0.0 0.00 0.00 0.30 89 1012.2
20260507063026 12 360 0.0 0.0 0.00 0.00 0.30 89 1012.2
20260507061523 12 360 0.0 0.0 0.00 0.00 0.30 89 1011.9
20260507060018 11 360 0.0 0.0 0.00 0.00 0.30 89 1011.9
20260507054515 11 360 0.0 0.0 0.00 0.00 0.30 88 1011.8
20260507053002 11 360 0.0 0.0 0.00 0.00 0.30 88 1011.8
20260507051606 11 360 0.0 0.0 0.00 0.00 0.30 88 1011.6
20260507050104 10 360 0.0 0.0 0.00 0.00 0.30 88 1011.5
20260507044559 11 126 0.0 0.0 0.00 0.00 0.30 88 1011.6
20260507043056 11 360 0.0 0.0 0.00 0.00 0.30 88 1011.7
20260507041556 11 360 0.0 0.0 0.00 0.00 0.30 88 1011.6
20260507040052 11 360 0.0 0.0 0.00 0.00 0.30 88 1011.5
20260507034550 12 360 0.0 0.0 0.00 0.00 0.30 88 1011.5
20260507033044 12 360 0.0 0.0 0.00 0.00 0.30 88 1011.5
20260507031539 12 360 0.0 0.0 0.00 0.00 0.30 88 1011.6
20260507030039 12 360 0.0 0.0 0.00 0.00 0.30 88 1011.5
20260507024540 12 360 0.0 0.0 0.00 0.00 0.30 88 1011.4
20260507023037 12 126 0.0 0.0 0.00 0.00 0.30 88 1011.5
20260507021537 12 126 0.0 0.0 0.00 0.00 0.30 88 1011.4
20260507020037 12 360 0.0 0.0 0.00 0.00 0.30 88 1011.4
20260507014542 12 126 0.0 0.0 0.00 0.00 0.30 88 1011.6
20260507013016 12 126 0.0 0.0 0.00 0.00 0.30 88 1011.7
20260507011516 12 126 0.0 0.0 0.00 0.00 0.30 88 1011.8
20260507010004 12 360 0.0 0.0 0.00 0.00 0.30 88 1011.9
20260507004503 12 360 0.0 0.0 0.00 0.00 0.30 88 1012.1
20260507003004 12 360 0.0 0.0 0.00 0.00 0.30 88 1012.2
20260507001501 12 360 0.0 0.0 0.00 0.00 0.30 87 1012.2
20260507000002 12 360 0.0 0.0 0.00 0.00 0.30 87 1012.3
20260506234559 12 360 0.0 0.0 0.00 0.00 0.30 87 1012.4
20260506233059 13 360 0.0 0.0 0.00 0.00 0.30 87 1012.4
20260506231601 13 360 0.0 0.0 0.00 0.00 0.30 87 1012.3
20260506230058 13 360 0.0 0.0 0.00 0.00 0.30 87 1012.5
20260506224545 13 360 0.0 0.0 0.00 0.00 0.30 87 1012.5
20260506223044 13 360 0.0 0.0 0.00 0.00 0.30 87 1012.5
20260506221542 13 360 0.0 0.0 0.00 0.00 0.30 87 1012.3
20260506220047 13 126 0.0 0.0 0.00 0.00 0.30 86 1012.3
20260506214549 13 126 0.0 0.0 0.00 0.00 0.30 87 1012.2
20260506213041 13 126 0.0 0.0 0.00 0.00 0.30 87 1012.2
20260506211539 13 126 0.0 0.0 0.00 0.00 0.30 87 1012.2
20260506210039 13 126 0.0 0.0 0.00 0.00 0.30 87 1012.2
20260506204521 13 126 0.0 0.0 0.00 0.00 0.30 87 1012.3
20260506203021 14 360 0.0 0.0 0.00 0.00 0.30 87 1012.2
20260506201516 14 360 0.0 0.0 0.00 0.00 0.30 87 1012.2
20260506200020 14 37 0.0 0.0 0.00 0.00 0.28 87 1012.1
20260506194518 13 36 0.0 0.0 0.00 0.00 0.25 87 1011.9
20260506193011 13 36 0.0 0.0 0.00 0.00 0.25 87 1011.7